Location: Newark
(48.6461°N, 4.3644°W)
Time: 20:44:43
(UTC+00:00)

A-11 Canister half - Pass Details

Date: 01 February 2020
Orbit: 1517 x 1683 km, 47.2° (Epoch: 26 February)

Event Time Altitude Azimuth Distance (km) Brightness Sun altitude
Exits shadow 02:32:38 14° 114° (ESE) 3,331 10.9 -50.1°
Drops below altitude 10° 02:33:44 10° 113° (ESE) 3,681 11.1 -49.9°
Sets 02:36:46 0° 112° (ESE) 4,669 11.8 -49.6°
